Theta_e
325 325 324 324 328 333 328 324 324 317 318 320 322 326 330 329 331 330 328 327 328 326 323 322 323 325 326 327 328 329 330 332 335 338 338 341 342 342
322 324 323 322 328 332 330 328 325 321 316 322 323 324 326 328 329 328 328 329 327 325 325 323 322 322 322 323 324 325 326 327 328 330 332 334 336 337
322 325 327 325 324 323 325 324 325 324 320 325 321 324 323 323 327 330 331 331 331 326 326 324 322 321 320 320 320 321 323 324 324 326 328 329 331 332
319 322 325 324 319 318 320 321 320 322 322 321 320 321 322 324 325 325 328 332 332 331 326 324 321 319 318 317 317 317 317 318 320 322 324 326 327 329
323 324 323 323 320 320 318 319 320 321 323 323 321 319 320 319 317 319 323 326 328 330 324 322 321 320 318 316 315 314 313 312 312 315 319 322 324 325
315 319 321 322 322 321 320 319 319 320 325 322 318 314 313 314 314 315 319 320 323 328 327 325 323 321 318 318 317 316 311 310 309 310 312 315 312 316
313 314 314 322 321 320 321 321 322 323 323 320 315 314 313 313 314 314 313 314 316 319 321 322 324 324 325 318 321 320 315 310 309 310 307 307 308 309
314 314 317 320 319 316 318 318 325 322 315 312 309 308 306 307 309 309 310 309 308 317 318 318 322 322 325 326 319 314 312 310 309 309 308 308 307 305
314 312 315 321 318 321 313 313 313 311 314 309 304 304 305 308 309 307 308 308 309 315 316 314 318 319 322 326 313 309 308 307 306 306 305 306 305 304
314 314 318 320 321 321 316 312 310 310 308 309 307 309 310 311 312 311 311 308 308 311 315 313 316 317 320 324 312 308 305 305 305 304 306 306 304 303
316 318 316 315 303 303 310 308 307 307 306 305 305 303 303 303 308 304 302 301 301 305 312 312 313 315 318 321 319 308 305 303 304 303 304 304 303 303
314 316 308 310 300 301 309 308 307 308 311 307 305 303 303 305 301 305 304 303 303 305 312 313 312 312 311 322 316 314 309 303 302 301 302 302 303 313
311 314 311 300 298 299 303 310 308 308 307 308 307 306 305 305 306 306 307 307 305 308 314 318 315 317 316 315 319 318 316 312 309 304 299 299 299 309
310 316 312 298 298 299 305 301 299 306 308 306 304 303 303 303 305 306 310 311 313 314 316 317 315 315 315 315 318 317 316 315 312 307 306 302 299 295
312 311 303 298 297 298 301 299 300 308 306 304 303 302 303 305 306 310 313 315 316 319 322 322 323 319 320 319 318 317 315 310 311 306 304 302 303 305
303 305 305 303 301 302 302 302 309 308 306 305 304 303 305 305 306 309 311 313 315 320 316 313 327 326 322 322 321 316 310 306 306 303 300 295 293 293
304 306 306 306 304 305 305 304 305 306 306 305 304 304 304 305 306 310 312 313 316 318 312 311 312 312 311 323 317 312 307 305 305 301 294 289 289 290
307 305 305 306 306 305 305 304 304 305 306 306 304 304 305 305 307 310 312 313 317 315 313 312 314 314 314 312 311 308 307 303 303 298 293 287 287 290
306 305 306 306 306 307 306 306 305 306 307 306 305 305 306 307 309 310 311 314 318 317 315 315 316 317 313 304 305 301 306 302 299 295 294 288 285 289
306 306 307 308 308 308 307 307 306 307 306 306 306 306 308 310 309 309 311 313 315 316 317 316 317 317 313 308 303 302 296 303 298 291 289 288 289 290
306 308 308 308 308 309 308 307 307 305 304 304 305 308 310 310 309 309 310 300 305 315 314 314 317 298 308 310 303 298 298 295 297 292 288 287 288 288
303 305 305 305 307 306 304 303 302 302 302 303 303 307 311 312 310 310 312 315 314 316 314 307 307 311 315 311 300 295 295 294 294 294 294 294 292 288
301 303 305 304 303 303 302 302 302 302 302 303 305 308 311 311 312 314 315 317 317 316 312 310 311 310 307 303 297 295 294 294 292 290 291 295 296 296
Wind_Speed
11 14 12 9 10 9 6 3 7 9 7 4 4 5 5 4 6 5 5 7 9 9 10 10 11 12 12 12 12 13 14 15 15 18 17 21 19 19
7 6 8 7 9 10 3 2 3 3 3 4 6 4 5 4 6 6 6 7 9 10 10 9 10 10 11 12 13 14 13 14 14 15 13 15 16 15
7 8 12 7 6 4 1 1 3 4 2 14 3 6 5 5 4 4 5 6 5 10 14 12 11 11 10 10 12 14 13 13 12 14 13 14 13 11
12 13 12 6 4 4 5 10 4 9 6 17 4 4 5 4 3 5 4 3 4 9 12 14 14 11 12 12 14 15 14 13 13 14 13 11 12 11
7 7 7 9 8 5 5 6 12 10 13 9 7 4 4 3 4 3 2 4 3 10 12 14 13 12 11 9 11 11 12 11 9 9 8 10 10 9
7 9 15 17 16 14 18 17 14 11 10 8 4 4 3 3 2 2 2 1 2 2 6 9 8 7 6 6 5 7 9 7 7 8 8 9 8 7
11 13 18 23 28 24 15 19 14 12 8 5 3 4 3 2 3 1 1 2 2 3 3 3 3 2 3 5 5 7 6 3 7 8 10 9 7 6
12 15 15 30 31 28 24 11 11 11 7 5 4 4 4 3 1 1 0 2 3 0 3 4 3 5 3 3 6 6 6 7 8 9 11 9 8 5
15 20 20 22 24 16 7 13 13 13 14 8 7 5 4 6 5 3 3 3 3 4 2 6 4 5 4 3 8 8 10 10 8 8 8 8 6 6
14 24 12 17 16 13 10 10 8 7 8 5 7 7 5 6 5 5 4 2 3 4 4 4 5 5 1 2 3 7 7 12 10 9 9 8 8 6
13 15 7 8 15 17 12 12 8 5 5 8 7 8 8 9 6 4 2 3 3 3 3 2 4 2 2 3 4 3 11 11 10 8 7 7 6 5
7 7 7 10 16 17 14 12 10 6 6 5 2 1 6 6 8 6 4 4 3 3 4 3 2 1 2 2 3 3 5 11 12 10 9 7 4 3
6 6 8 15 17 12 13 10 9 8 6 6 5 4 3 4 3 5 6 5 4 5 5 4 1 2 2 2 2 4 3 5 6 7 12 12 12 5
7 4 4 16 15 14 12 12 14 9 5 5 3 3 3 2 4 3 5 5 6 9 7 7 4 4 4 3 3 4 4 6 7 6 6 8 20 24
9 8 9 14 14 10 12 13 11 5 5 3 4 3 3 4 3 2 3 6 9 9 8 9 7 5 5 3 4 5 5 4 5 6 7 7 6 4
5 5 7 9 7 8 7 5 4 6 6 4 4 3 4 2 3 4 2 3 4 2 4 8 9 8 4 2 10 7 7 4 4 7 8 9 7 7
5 3 4 4 5 4 4 6 4 4 5 5 3 4 3 2 2 2 1 3 4 1 2 4 6 10 7 5 9 9 9 8 7 9 10 9 6 6
4 3 3 5 6 5 4 4 4 7 5 4 3 2 4 3 1 1 1 3 1 3 2 2 2 5 6 10 12 10 8 8 6 8 7 11 7 5
4 4 4 5 4 5 5 5 5 6 5 4 3 4 4 2 3 2 2 1 1 2 3 3 3 1 6 5 2 18 10 8 8 8 4 5 6 5
5 5 5 5 5 5 5 4 3 3 3 3 3 3 3 4 3 3 4 3 3 2 3 2 1 1 6 7 5 3 10 12 8 8 9 6 6 11
3 5 5 5 4 5 5 4 4 3 4 3 2 2 3 3 3 4 3 4 4 3 3 3 3 9 7 9 7 3 6 13 6 11 10 8 4 3
1 1 3 4 5 5 5 4 4 4 2 2 2 2 3 4 4 4 4 3 3 3 2 3 4 8 5 8 9 7 5 5 12 13 8 1 6 6
3 2 4 5 5 6 5 5 3 2 2 2 3 3 3 3 3 4 3 3 3 3 3 4 5 4 7 8 12 7 14 11 6 4 4 9 11 15
Wind_Direction
245 241 240 225 209 227 214 195 228 254 237 248 221 217 216 207 223 221 236 248 247 243 245 245 238 232 238 240 245 251 247 243 245 248 243 222 216 217
249 246 227 231 243 241 195 187 165 147 283 246 223 216 203 211 224 221 229 235 266 281 280 262 256 239 236 242 251 253 248 244 239 247 245 244 217 210
259 244 239 177 173 127 161 137 54 231 196 275 280 236 209 203 227 204 202 231 251 261 267 270 267 264 262 258 260 260 254 246 243 245 243 240 233 209
255 245 220 183 178 181 187 200 227 203 212 268 253 239 210 210 212 227 234 236 239 255 253 255 254 258 254 258 260 252 246 237 234 241 239 231 206 195
262 248 247 213 195 195 240 205 210 218 224 231 224 223 222 184 238 281 252 252 221 249 249 246 246 247 253 258 266 260 242 234 252 243 223 214 208 184
235 248 239 225 229 212 221 221 193 216 218 213 181 201 207 232 168 180 300 282 306 285 265 254 254 245 246 241 262 283 253 213 220 214 188 176 154 155
230 250 252 233 213 218 206 222 185 193 195 178 166 188 179 135 179 152 187 290 324 273 291 308 293 277 260 216 237 250 251 203 182 177 143 141 146 167
270 270 263 223 208 205 214 179 180 173 160 149 182 168 165 155 97 80 40 37 330 241 325 291 274 278 260 209 198 204 133 137 158 163 150 149 151 165
285 277 270 207 202 190 150 166 182 172 171 162 151 167 140 180 148 163 235 189 220 274 267 278 261 266 256 255 192 188 147 150 157 145 133 140 155 157
286 305 192 186 172 152 139 155 147 166 152 141 149 156 159 162 172 169 191 267 305 273 221 252 248 253 246 76 12 181 170 149 147 148 142 149 153 156
300 292 92 134 107 126 146 149 156 161 135 141 146 146 171 185 170 118 244 158 293 262 265 205 259 272 71 55 34 162 150 139 130 116 105 104 122 140
290 245 200 147 153 162 161 146 143 173 138 116 98 195 196 211 191 193 170 212 167 302 252 208 258 110 58 59 89 74 101 97 98 100 84 86 106 120
288 185 188 157 161 146 132 146 158 143 158 143 150 188 210 223 244 205 198 177 174 223 244 228 231 110 87 140 102 108 96 117 87 73 63 58 55 65
262 268 157 152 159 148 145 161 144 139 140 137 169 225 232 260 259 248 247 212 222 221 239 209 215 166 163 161 146 102 110 98 98 100 97 84 69 61
245 224 184 170 162 154 161 148 145 127 139 159 197 218 210 223 229 250 237 244 242 243 240 222 220 183 176 172 142 129 117 58 86 89 68 53 47 41
226 172 187 154 118 119 90 140 182 156 169 181 203 205 230 195 203 177 210 257 262 184 53 354 223 188 173 130 130 122 121 124 99 90 89 70 57 66
149 130 124 129 127 141 150 164 182 171 191 193 195 216 256 222 255 144 223 278 254 35 38 29 36 82 53 125 122 120 115 109 117 115 97 87 63 64
163 155 145 156 146 159 165 162 177 201 199 198 203 210 247 236 243 114 225 255 252 133 138 102 116 101 104 64 63 119 112 117 110 105 113 109 89 57
163 159 154 160 154 153 157 177 184 198 184 197 190 220 231 234 151 176 242 232 126 143 153 212 136 198 136 86 67 32 126 125 120 110 103 87 125 112
163 177 171 167 171 151 178 193 189 189 198 202 206 236 215 174 146 206 225 192 177 181 184 151 119 280 156 139 125 60 37 136 128 122 107 86 82 89
178 168 179 164 163 173 193 197 181 174 202 179 182 167 181 166 198 219 219 221 202 169 174 156 128 102 113 111 95 76 43 59 82 125 134 119 103 100
233 210 169 164 170 167 157 156 148 178 186 60 359 256 216 181 210 225 218 185 197 181 147 86 143 145 158 131 124 114 107 79 66 74 47 43 157 158
221 231 178 165 154 153 141 140 129 115 69 348 299 281 201 190 198 235 215 205 171 167 156 146 132 67 117 126 121 119 122 121 132 121 47 58 95 100